Content
SEND FEEDBACK

Daily
Averages
Monthly
Summary
United States of America

TOMBSTONE, ARIZONA


Home > North America > United States > Arizona
Elevation: 4392 feet     Latitude: 31 43N     Longitude: 110 04W

WEATHER
 
SELECT A DAY
Number of Records: 122,201;   Date Range: 1/3/95 - 9/3/14
 
SHARE

PRINT THIS DATA

[ ← Previous Day ]
WEATHER ALMANAC - MARCH 1, 2013
[ Next Day → ]
[ °C ]   °F
Weather ElementAverageHighLow
Temperature52.4 °F66.2 °F (3:55 pm)35.6 °F (3:55 am)
Dewpoint8 °F15.8 °F (10:55 pm)1.4 °F (8:55 am)
Humidity18.3 %35 % (3:55 am)10 % (12:55 pm)
Barometer30.26 in30.32 in (6:55 am)30.20 in (5:55 pm)
Wind Speed5.2 mph10.4 mph (4:55 pm)
Weather ElementAverage
Visibility10 mi
Wind DirectionE (90.4 °)

Weather ElementTotal
Precipitation---
Heating Degree Days14.1 (Base 65)
Growing Degree Days0.9 (Base 50)
Averaged from 23 records on March 1, 2013
WEATHER CONDITIONS BREAKOUT
WIND DIRECTION BREAKOUT
WEATHER BY HOUR - MARCH 1, 2013
[ °C ]   °F
Local TimeTemperatureDewpointHumidityBarometerVisibilityWind DirectionWind SpeedGust SpeedPrecipitationEventsConditions
1:55 AM42.8 °F8.6 °F25 %30.28 in10.0 miEast (90°)3.5 mphClear
2:55 AM39.2 °F8.6 °F28 %30.27 in10.0 miCalmClear
3:55 AM35.6 °F10.4 °F35 %30.27 in10.0 miSouth (180°)4.6 mphClear
4:55 AM42.8 °F6.8 °F23 %30.25 in10.0 miCalmClear
5:55 AM37.4 °F6.8 °F28 %30.28 in10.0 miSSW (210°)5.8 mphClear
6:55 AM39.2 °F5.0 °F24 %30.32 in10.0 miSE (130°)6.9 mphClear
7:55 AM44.6 °F3.2 °F18 %30.32 in10.0 miVariable4.6 mphClear
8:55 AM48.2 °F1.4 °F15 %30.31 in10.0 miSE (140°)4.6 mphClear
9:55 AM55.4 °F1.4 °F11 %30.29 in10.0 miEast (100°)9.2 mphClear
10:55 AM55.4 °F3.2 °F12 %30.30 in10.0 miEast (80°)8.1 mphClear
11:55 AM59.0 °F5.0 °F12 %30.31 in10.0 miVariable2.3 mphClear
12:55 PM62.6 °F5.0 °F10 %30.27 in10.0 miVariable6.9 mphClear
1:55 PM62.6 °F5.0 °F10 %30.24 in10.0 miCalmClear
2:55 PM64.4 °F8.6 °F11 %30.22 in10.0 miNorth (10°)8.1 mphClear
3:55 PM66.2 °F8.6 °F11 %30.21 in10.0 miNNE (20°)6.9 mphClear
4:55 PM66.2 °F10.4 °F11 %30.21 in10.0 miNorth (360°)10.4 mphClear
5:55 PM64.4 °F10.4 °F12 %30.20 in10.0 miNorth (10°)8.1 mphClear
6:55 PM60.8 °F10.4 °F14 %30.24 in10.0 miNE (40°)4.6 mphClear
7:55 PM57.2 °F10.4 °F16 %30.24 in10.0 miNNE (20°)5.8 mphClear
8:55 PM55.4 °F10.4 °F17 %30.25 in10.0 miNNE (20°)3.5 mphClear
9:55 PM50.0 °F14.0 °F24 %30.25 in10.0 miSW (230°)4.6 mphClear
10:55 PM48.2 °F15.8 °F27 %30.27 in10.0 miSW (220°)3.5 mphClear
11:56 PM46.9 °F14.0 °F27 %30.27 in10.0 miSW (220°)8.1 mphClear
Hourly data recorded from KFHU, located miles away from Tombstone, Arizona







STORIES FROM OUR PARTNERS